Other Surface Observations
Issued by NWS

Home | Current Version | Previous Version | Text Only | Print | Product List | Glossary On
Versions: 1 2 3 4 5 6 7 8 9 10 11 12 13 14 15 16 17 18 19 20 21 22 23 24 25 26 27 28 29 30 31 32 33 34 35 36 37 38 39 40 41 42 43 44 45 46 47 48 49 50
000
SXUS52 KTAE 182018
OSOTAE
OSOTAE
North Florida/South Alabama/Southwest Georgia Weather Roundup
National Weather Service Tallahassee Florida
400 PM EDT THU SEP 18 2014

Note: "fair" indicates few or no clouds below 12,000 feet with no
significant weather and/or obstructions to visibility.

!FLZ017-115-028-034-025-182100
...North Florida...

CITY           SKY/WX    TMP DP  RH WIND       PRES   REMARKS
TALLAHASSEE    PTSUNNY   89  67  47 NE6       29.89F HX  92
APALACHICOLA   PTSUNNY   89  75  63 S9        29.89F HX  99
PERRY          PTSUNNY   88  63  42 NW5       29.89F
CROSS CITY       N/A     90  74  59 W10       29.88F HX  99
HOMERVILLE     FAIR      91  61  35 CALM      29.90F HX  91
JACKSONVILLE   PTSUNNY   89  64  43 CALM      29.87F HX  90
$$

!FLZ112-006-005-002-011-182100
...Florida Panhandle...

CITY           SKY/WX    TMP DP  RH WIND       PRES   REMARKS
MARIANNA       MOSUNNY   89  69  51 NW3       29.90F HX  93
BONIFAY        FAIR      89  67  47 NE3       29.91F HX  92
PANAMA CITY NW PTSUNNY   88  73  61 W9        29.88F HX  95
TYNDALL AFB    MOSUNNY   87  78  73 SW10      29.89F HX 100
TYND DRONE APT FAIR      86  75  68 MISG      29.88F HX  94
DE FUNIAK SPR  FAIR      87  67  51 E3        29.91F HX  90
EGLIN AFB      PTSUNNY   82  75  78 VRB5      29.89F
DESTIN         PTSUNNY   87  74  64 S7        29.89F HX  95
HURLBURT       PTSUNNY   84  70  61 SW5       29.89F
CRESTVIEW      MOSUNNY   90  67  46 E5        29.91F HX  93
PENSACOLA      CLOUDY    81  72  74 S10       29.90F
$$

!ALZ063-066-182100
...South Alabama...

CITY           SKY/WX    TMP DP  RH WIND       PRES   REMARKS
DOTHAN         SUNNY     88  55  32 CALM      29.95F
OZARK CAIRNS   SUNNY     88  54  31 NE3       29.91F
FT RUCKER HELI SUNNY     88  52  29 N3        29.91F
RUCKER HELI 3  FAIR      87  52  30 NE3       29.95S
RUCKER HELI 2  FAIR      89  53  29 N7        29.91F
FLORALA APT    MOSUNNY   88  63  43 NE5       29.93F
ANDALUSIA      MOSUNNY   92  61  35 CALM      29.91F HX  92
TROY           MOSUNNY   88  55  32 E5        29.93F
EUFALA         FAIR      90  56  31 CALM      29.91F
MOBILE         CLOUDY    87  70  56 SE6       29.90F HX  92
$$

!GAZ120>161-182100
...Southwest and South Central Georgia...

CITY           SKY/WX    TMP DP  RH WIND       PRES   REMARKS
THOMASVILLE    FAIR      88  59  37 N3        29.91F
BAINBRIDGE     PTSUNNY   91  61  35 N6        29.91S HX  91
MOODY AFB      SUNNY     89  62  41 N6        29.90F
VALDOSTA       MOSUNNY   91  59  33 VRB3      29.90F HX  90
MOULTRIE       MOSUNNY   88  61  40 NE3       29.92S
BLAKELY        SUNNY     90  55  31 SE3         N/A
ALBANY         SUNNY     88  58  36 N6        29.93F
TIFTON         FAIR      85  54  34 NE3       29.91F
FITZGERALD     FAIR      86  62  43 E3        29.95S
CORDELE        FAIR      85  67  55 NE8       29.94S
AMERICUS       FAIR      82  64  54 E6        29.95S
$$

!GMZ750-755-770-775-182100
...Coastal and Buoy Obs...

STATION/POSITION TIME  TEMP    WIND        PRES    VSBY  WAVE
                       AIR SEA DIR/SP/G                  HT/PER
                 (UTC) (F)     (DEG/KT/KT) (MB)    (MI)  (FT/S)
KEATON BEACH     2000   84     230/  8/  9 1012.2F
CEDAR KEY        2000   84     250/  4/  7 1012.5F
C TOWER          2000   82     150/  4/  4 1012.4F
APALACHICOLA BUO 2000   83 87  150/  2/  4 1012.6F         1/ 4
PANAMA CITY BUOY 1905   83 87  150/  4/  6 1012.5F         1/ 7
MOBILE BUOY      1859   83 87  150/  6/  8 1012.9F         1/ 5
ORANGE BCH AL BU 2000   83 87  170/  4/  6 1012.7F         1
$$



USA.gov is the U.S. government's official web portal to all federal, state and local government web resources and services.